Time,TemperatureF,DewpointF,PressureIn,WindDirection,WindDirectionDegrees,WindSpeedMPH,WindSpeedGustMPH,Humidity,HourlyPrecipIn,Conditions,Clouds,dailyrainin,SoftwareType,DateUTC
2013-05-18 00:03:00,68.5,65.1,30.09,SE,126,0.0,1.0,89,0.00,,,0.00,WeatherCatV1.15B25,2013-05-18 10:03:00,
2013-05-18 00:08:00,68.5,65.1,30.08,SE,126,0.0,1.0,89,0.00,,,0.00,WeatherCatV1.15B25,2013-05-18 10:08:00,
2013-05-18 00:13:00,68.6,64.9,30.08,SE,126,0.0,1.0,88,0.00,,,0.00,WeatherCatV1.15B25,2013-05-18 10:13:00,
2013-05-18 00:18:00,68.7,65.0,30.08,SE,127,5.0,5.0,88,0.00,,,0.00,WeatherCatV1.15B25,2013-05-18 10:18:00,
2013-05-18 00:23:00,68.8,65.1,30.08,SE,127,0.0,2.0,88,0.00,,,0.00,WeatherCatV1.15B25,2013-05-18 10:23:00,
2013-05-18 00:28:00,69.0,65.3,30.08,SE,127,1.0,4.0,88,0.00,,,0.00,WeatherCatV1.15B25,2013-05-18 10:28:00,
2013-05-18 00:33:00,69.2,65.5,30.07,SE,130,0.0,2.0,88,0.00,,,0.00,WeatherCatV1.15B25,2013-05-18 10:33:00,
2013-05-18 00:38:00,69.3,65.6,30.07,SE,131,0.0,2.0,88,0.00,,,0.00,WeatherCatV1.15B25,2013-05-18 10:38:00,
2013-05-18 00:43:00,69.4,65.7,30.07,SE,132,1.0,4.0,88,0.00,,,0.00,WeatherCatV1.15B25,2013-05-18 10:43:00,
2013-05-18 00:48:00,69.4,65.7,30.07,SE,132,0.0,6.0,88,0.00,,,0.00,WeatherCatV1.15B25,2013-05-18 10:48:00,
2013-05-18 00:53:00,69.4,65.7,30.06,SE,133,5.0,5.0,88,0.00,,,0.00,WeatherCatV1.15B25,2013-05-18 10:53:00,
2013-05-18 00:58:00,69.3,65.6,30.06,SE,145,2.0,6.0,88,0.00,,,0.00,WeatherCatV1.15B25,2013-05-18 10:58:00,
2013-05-18 01:03:00,69.3,65.3,30.06,SSE,148,1.0,5.0,87,0.00,,,0.00,WeatherCatV1.15B25,2013-05-18 11:03:00,
2013-05-18 01:08:00,69.2,65.2,30.06,SSE,149,0.0,4.0,87,0.00,,,0.00,WeatherCatV1.15B25,2013-05-18 11:08:00,
2013-05-18 01:13:00,69.1,65.4,30.06,SSE,149,0.0,5.0,88,0.00,,,0.00,WeatherCatV1.15B25,2013-05-18 11:13:00,
2013-05-18 01:18:00,69.0,65.3,30.05,SSE,150,0.0,4.0,88,0.00,,,0.00,WeatherCatV1.15B25,2013-05-18 11:18:00,
2013-05-18 01:23:00,68.9,65.2,30.05,SSE,150,2.0,2.0,88,0.00,,,0.00,WeatherCatV1.15B25,2013-05-18 11:23:00,
2013-05-18 01:28:00,68.8,65.1,30.05,SSE,150,0.0,4.0,88,0.00,,,0.00,WeatherCatV1.15B25,2013-05-18 11:28:00,
2013-05-18 01:33:00,68.6,64.9,30.05,SSE,150,4.0,5.0,88,0.00,,,0.00,WeatherCatV1.15B25,2013-05-18 11:33:00,
2013-05-18 01:38:00,68.6,64.9,30.04,SSE,150,0.0,4.0,88,0.00,,,0.00,WeatherCatV1.15B25,2013-05-18 11:38:00,
2013-05-18 01:43:00,68.5,64.8,30.04,SSE,150,0.0,2.0,88,0.00,,,0.00,WeatherCatV1.15B25,2013-05-18 11:43:00,
2013-05-18 01:48:00,68.4,64.7,30.04,SSE,150,0.0,4.0,88,0.00,,,0.00,WeatherCatV1.15B25,2013-05-18 11:48:00,
2013-05-18 01:53:00,68.4,64.7,30.03,SSE,151,0.0,5.0,88,0.00,,,0.00,WeatherCatV1.15B25,2013-05-18 11:53:00,
2013-05-18 01:58:00,68.3,64.6,30.03,SSE,151,2.0,2.0,88,0.00,,,0.00,WeatherCatV1.15B25,2013-05-18 11:58:00,
2013-05-18 02:03:00,68.3,64.9,30.03,SSE,151,0.0,5.0,89,0.00,,,0.00,WeatherCatV1.15B25,2013-05-18 12:03:00,
2013-05-18 02:08:00,68.3,64.9,30.03,SSE,151,0.0,1.0,89,0.00,,,0.00,WeatherCatV1.15B25,2013-05-18 12:08:00,
2013-05-18 02:13:00,68.2,64.8,30.03,SSE,151,0.0,2.0,89,0.00,,,0.00,WeatherCatV1.15B25,2013-05-18 12:13:00,
2013-05-18 02:18:00,68.2,64.8,30.03,SSE,151,0.0,0.0,89,0.00,,,0.00,WeatherCatV1.15B25,2013-05-18 12:18:00,
2013-05-18 02:23:00,68.1,64.7,30.03,SSE,151,0.0,0.0,89,0.00,,,0.00,WeatherCatV1.15B25,2013-05-18 12:23:00,
2013-05-18 02:28:00,68.0,64.3,30.03,SSE,151,0.0,1.0,88,0.00,,,0.00,WeatherCatV1.15B25,2013-05-18 12:28:00,
2013-05-18 02:33:00,68.0,64.6,30.02,SSE,151,1.0,4.0,89,0.00,,,0.00,WeatherCatV1.15B25,2013-05-18 12:33:00,
2013-05-18 02:38:00,67.9,64.2,30.02,SSE,151,2.0,5.0,88,0.00,,,0.00,WeatherCatV1.15B25,2013-05-18 12:38:00,
2013-05-18 02:43:00,67.9,64.2,30.03,SSE,151,2.0,2.0,88,0.00,,,0.00,WeatherCatV1.15B25,2013-05-18 12:43:00,
2013-05-18 02:48:00,67.9,64.2,30.02,SSE,151,2.0,4.0,88,0.00,,,0.00,WeatherCatV1.15B25,2013-05-18 12:48:00,
2013-05-18 02:53:00,67.9,64.2,30.02,SSE,151,1.0,5.0,88,0.00,,,0.00,WeatherCatV1.15B25,2013-05-18 12:53:00,
2013-05-18 02:58:00,67.8,64.1,30.02,SSE,151,0.0,2.0,88,0.00,,,0.00,WeatherCatV1.15B25,2013-05-18 12:58:00,
2013-05-18 03:03:00,67.7,64.0,30.02,SSE,151,1.0,4.0,88,0.00,,,0.00,WeatherCatV1.15B25,2013-05-18 13:03:00,
2013-05-18 03:08:00,67.7,64.0,30.02,SSE,151,0.0,2.0,88,0.00,,,0.00,WeatherCatV1.15B25,2013-05-18 13:08:00,
2013-05-18 03:13:00,67.7,64.0,30.02,SSE,151,0.0,2.0,88,0.00,,,0.00,WeatherCatV1.15B25,2013-05-18 13:13:00,
2013-05-18 03:18:00,67.6,63.9,30.02,SSE,151,0.0,1.0,88,0.00,,,0.00,WeatherCatV1.15B25,2013-05-18 13:18:00,
2013-05-18 03:23:00,67.4,63.7,30.02,SSE,151,0.0,4.0,88,0.00,,,0.00,WeatherCatV1.15B25,2013-05-18 13:23:00,
2013-05-18 03:28:00,67.3,63.6,30.02,SSE,151,0.0,0.0,88,0.00,,,0.00,WeatherCatV1.15B25,2013-05-18 13:28:00,
2013-05-18 03:33:00,67.2,63.5,30.02,SSE,151,2.0,4.0,88,0.00,,,0.00,WeatherCatV1.15B25,2013-05-18 13:33:00,
2013-05-18 03:38:00,67.2,63.5,30.02,SSE,151,0.0,4.0,88,0.00,,,0.00,WeatherCatV1.15B25,2013-05-18 13:38:00,
2013-05-18 03:43:00,67.2,63.5,30.02,SSE,151,2.0,5.0,88,0.00,,,0.00,WeatherCatV1.15B25,2013-05-18 13:43:00,
2013-05-18 03:48:00,67.4,64.0,30.01,SSE,151,0.0,0.0,89,0.00,,,0.01,WeatherCatV1.15B25,2013-05-18 13:48:00,
2013-05-18 03:52:00,67.4,64.0,30.01,SSE,151,1.0,2.0,89,0.00,,,0.01,WeatherCatV1.15B25,2013-05-18 13:52:00,
2013-05-18 03:57:00,67.4,64.4,30.01,SSE,151,0.0,5.0,90,0.00,,,0.01,WeatherCatV1.15B25,2013-05-18 13:57:00,
2013-05-18 04:02:00,67.3,64.3,30.01,SSE,151,2.0,4.0,90,0.00,,,0.01,WeatherCatV1.15B25,2013-05-18 14:02:00,
2013-05-18 04:04:00,67.3,64.3,30.01,SSE,151,0.0,2.0,90,0.00,,,0.01,WeatherCatV1.15B25,2013-05-18 14:04:00,
2013-05-18 04:09:00,67.2,64.2,30.01,SSE,153,2.0,6.0,90,0.00,,,0.02,WeatherCatV1.15B25,2013-05-18 14:09:00,
2013-05-18 04:14:00,67.1,64.1,30.02,SSE,153,0.0,0.0,90,0.00,,,0.02,WeatherCatV1.15B25,2013-05-18 14:14:00,
2013-05-18 04:19:00,67.0,64.0,30.02,SSE,153,0.0,2.0,90,0.00,,,0.02,WeatherCatV1.15B25,2013-05-18 14:19:00,
2013-05-18 04:24:00,66.9,63.9,30.02,SSE,153,0.0,0.0,90,0.00,,,0.02,WeatherCatV1.15B25,2013-05-18 14:24:00,
2013-05-18 04:29:00,66.8,64.1,30.02,SSE,153,0.0,1.0,91,0.00,,,0.02,WeatherCatV1.15B25,2013-05-18 14:29:00,
2013-05-18 04:34:00,66.8,64.1,30.02,SSE,153,0.0,4.0,91,0.00,,,0.02,WeatherCatV1.15B25,2013-05-18 14:34:00,
2013-05-18 04:39:00,66.8,64.1,30.02,SSE,153,2.0,4.0,91,0.00,,,0.02,WeatherCatV1.15B25,2013-05-18 14:39:00,
2013-05-18 04:44:00,67.0,64.3,30.02,SSE,153,0.0,5.0,91,0.00,,,0.02,WeatherCatV1.15B25,2013-05-18 14:44:00,
2013-05-18 04:49:00,67.0,64.3,30.03,SSE,153,0.0,4.0,91,0.00,,,0.02,WeatherCatV1.15B25,2013-05-18 14:49:00,
2013-05-18 04:54:00,67.1,64.4,30.03,SSE,156,4.0,5.0,91,0.00,,,0.02,WeatherCatV1.15B25,2013-05-18 14:54:00,
2013-05-18 04:59:00,67.1,64.1,30.03,SSE,157,1.0,6.0,90,0.00,,,0.02,WeatherCatV1.15B25,2013-05-18 14:59:00,
2013-05-18 05:04:00,67.3,64.3,30.03,SSE,157,0.0,4.0,90,0.00,,,0.02,WeatherCatV1.15B25,2013-05-18 15:04:00,
2013-05-18 05:09:00,67.3,64.3,30.03,SSE,157,0.0,5.0,90,0.00,,,0.02,WeatherCatV1.15B25,2013-05-18 15:09:00,
2013-05-18 05:14:00,67.3,64.3,30.03,SSE,159,2.0,6.0,90,0.00,,,0.02,WeatherCatV1.15B25,2013-05-18 15:14:00,
2013-05-18 05:19:00,67.3,63.9,30.03,SSE,159,0.0,5.0,89,0.00,,,0.02,WeatherCatV1.15B25,2013-05-18 15:19:00,
2013-05-18 05:24:00,67.3,63.9,30.04,SSE,159,2.0,4.0,89,0.00,,,0.02,WeatherCatV1.15B25,2013-05-18 15:24:00,
2013-05-18 05:29:00,67.3,63.9,30.04,SSE,161,2.0,6.0,89,0.00,,,0.02,WeatherCatV1.15B25,2013-05-18 15:29:00,
2013-05-18 05:34:00,67.3,63.9,30.04,SSE,161,0.0,0.0,89,0.00,,,0.02,WeatherCatV1.15B25,2013-05-18 15:34:00,
2013-05-18 05:39:00,67.3,63.9,30.04,SSE,161,0.0,2.0,89,0.00,,,0.02,WeatherCatV1.15B25,2013-05-18 15:39:00,
2013-05-18 05:44:00,67.3,63.9,30.04,SSE,161,5.0,5.0,89,0.00,,,0.02,WeatherCatV1.15B25,2013-05-18 15:44:00,
2013-05-18 05:49:00,67.3,63.9,30.04,SSE,161,0.0,4.0,89,0.00,,,0.02,WeatherCatV1.15B25,2013-05-18 15:49:00,
2013-05-18 05:54:00,67.2,63.8,30.04,SSE,161,0.0,4.0,89,0.00,,,0.02,WeatherCatV1.15B25,2013-05-18 15:54:00,
2013-05-18 05:59:00,67.2,64.2,30.04,SSE,161,0.0,4.0,90,0.00,,,0.02,WeatherCatV1.15B25,2013-05-18 15:59:00,
2013-05-18 06:04:00,67.2,64.2,30.04,SSE,161,0.0,5.0,90,0.00,,,0.02,WeatherCatV1.15B25,2013-05-18 16:04:00,
2013-05-18 06:09:00,67.3,64.3,30.05,SSE,161,0.0,2.0,90,0.00,,,0.02,WeatherCatV1.15B25,2013-05-18 16:09:00,
2013-05-18 06:14:00,67.4,64.4,30.05,SSE,161,0.0,5.0,90,0.00,,,0.02,WeatherCatV1.15B25,2013-05-18 16:14:00,
2013-05-18 06:19:00,67.5,64.5,30.05,SSE,161,0.0,4.0,90,0.00,,,0.02,WeatherCatV1.15B25,2013-05-18 16:19:00,
2013-05-18 06:24:00,67.6,64.6,30.05,SSE,161,0.0,4.0,90,0.00,,,0.02,WeatherCatV1.15B25,2013-05-18 16:24:00,
2013-05-18 06:29:00,67.9,64.9,30.06,SSE,161,0.0,4.0,90,0.00,,,0.02,WeatherCatV1.15B25,2013-05-18 16:29:00,
2013-05-18 06:34:00,68.2,64.8,30.06,SSE,161,0.0,4.0,89,0.00,,,0.02,WeatherCatV1.15B25,2013-05-18 16:34:00,
2013-05-18 06:39:00,68.5,65.4,30.06,SSE,161,0.0,0.0,90,0.00,,,0.02,WeatherCatV1.15B25,2013-05-18 16:39:00,
2013-05-18 06:44:00,69.0,65.6,30.06,SSE,161,0.0,4.0,89,0.00,,,0.02,WeatherCatV1.15B25,2013-05-18 16:44:00,
2013-05-18 06:49:00,69.6,66.2,30.07,SSE,161,0.0,1.0,89,0.00,,,0.02,WeatherCatV1.15B25,2013-05-18 16:49:00,
2013-05-18 06:54:00,70.2,66.5,30.07,SSE,161,0.0,0.0,88,0.00,,,0.02,WeatherCatV1.15B25,2013-05-18 16:54:00,
2013-05-18 06:59:00,70.8,66.7,30.07,SSE,161,0.0,5.0,87,0.00,,,0.02,WeatherCatV1.15B25,2013-05-18 16:59:00,
2013-05-18 07:04:00,71.4,67.0,30.07,SSE,161,0.0,0.0,86,0.00,,,0.02,WeatherCatV1.15B25,2013-05-18 17:04:00,
2013-05-18 07:09:00,71.9,67.1,30.07,SSE,161,0.0,0.0,85,0.00,,,0.02,WeatherCatV1.15B25,2013-05-18 17:09:00,
2013-05-18 07:14:00,72.2,67.1,30.07,SSE,161,0.0,0.0,84,0.00,,,0.02,WeatherCatV1.15B25,2013-05-18 17:14:00,
2013-05-18 07:19:00,72.6,67.8,30.08,SSE,161,0.0,0.0,85,0.00,,,0.02,WeatherCatV1.15B25,2013-05-18 17:19:00,
2013-05-18 07:24:00,73.4,68.6,30.08,SSE,161,0.0,1.0,85,0.00,,,0.02,WeatherCatV1.15B25,2013-05-18 17:24:00,
2013-05-18 07:29:00,74.2,69.0,30.08,SSE,161,0.0,2.0,84,0.00,,,0.02,WeatherCatV1.15B25,2013-05-18 17:29:00,
2013-05-18 07:34:00,75.0,68.8,30.08,SSE,161,0.0,4.0,81,0.00,,,0.02,WeatherCatV1.15B25,2013-05-18 17:34:00,
2013-05-18 07:39:00,75.7,69.1,30.08,SSE,161,0.0,2.0,80,0.00,,,0.02,WeatherCatV1.15B25,2013-05-18 17:39:00,
2013-05-18 07:44:00,76.2,69.2,30.08,SSE,161,1.0,6.0,79,0.00,,,0.02,WeatherCatV1.15B25,2013-05-18 17:44:00,
2013-05-18 07:49:00,76.7,69.3,30.08,SSE,161,0.0,5.0,78,0.00,,,0.02,WeatherCatV1.15B25,2013-05-18 17:49:00,
2013-05-18 07:54:00,77.1,69.7,30.08,SSE,161,0.0,1.0,78,0.00,,,0.02,WeatherCatV1.15B25,2013-05-18 17:54:00,
2013-05-18 07:59:00,77.3,69.5,30.08,SE,146,0.0,5.0,77,0.00,,,0.02,WeatherCatV1.15B25,2013-05-18 17:59:00,
2013-05-18 08:04:00,77.6,69.8,30.08,SE,146,0.0,4.0,77,0.00,,,0.02,WeatherCatV1.15B25,2013-05-18 18:04:00,
2013-05-18 08:09:00,77.6,69.4,30.08,SE,132,0.0,5.0,76,0.00,,,0.02,WeatherCatV1.15B25,2013-05-18 18:09:00,
2013-05-18 08:14:00,77.6,69.0,30.08,SE,138,0.0,4.0,75,0.00,,,0.02,WeatherCatV1.15B25,2013-05-18 18:14:00,
2013-05-18 08:19:00,77.5,68.9,30.09,SE,138,0.0,0.0,75,0.00,,,0.02,WeatherCatV1.15B25,2013-05-18 18:19:00,
2013-05-18 08:24:00,77.1,69.3,30.09,SE,138,0.0,0.0,77,0.00,,,0.02,WeatherCatV1.15B25,2013-05-18 18:24:00,
2013-05-18 08:29:00,76.5,68.7,30.09,SE,138,0.0,1.0,77,0.00,,,0.02,WeatherCatV1.15B25,2013-05-18 18:29:00,
2013-05-18 08:34:00,75.6,68.2,30.09,SE,138,0.0,1.0,78,0.00,,,0.02,WeatherCatV1.15B25,2013-05-18 18:34:00,
2013-05-18 08:39:00,75.8,69.5,30.09,SE,133,2.0,4.0,81,0.00,,,0.02,WeatherCatV1.15B25,2013-05-18 18:39:00,
2013-05-18 08:44:00,76.1,69.1,30.09,SE,133,2.0,2.0,79,0.00,,,0.02,WeatherCatV1.15B25,2013-05-18 18:44:00,
2013-05-18 08:49:00,75.9,68.9,30.09,SE,133,0.0,2.0,79,0.00,,,0.02,WeatherCatV1.15B25,2013-05-18 18:49:00,
2013-05-18 08:54:00,75.5,68.9,30.09,SE,133,0.0,2.0,80,0.00,,,0.02,WeatherCatV1.15B25,2013-05-18 18:54:00,
2013-05-18 08:59:00,75.2,69.0,30.09,SE,130,0.0,1.0,81,0.00,,,0.02,WeatherCatV1.15B25,2013-05-18 18:59:00,
2013-05-18 09:04:00,75.1,69.2,30.09,SE,130,0.0,0.0,82,0.00,,,0.02,WeatherCatV1.15B25,2013-05-18 19:04:00,
2013-05-18 09:09:00,75.3,69.8,30.09,SE,130,0.0,1.0,83,0.00,,,0.02,WeatherCatV1.15B25,2013-05-18 19:09:00,
2013-05-18 09:14:00,75.6,69.3,30.09,SE,130,0.0,0.0,81,0.00,,,0.02,WeatherCatV1.15B25,2013-05-18 19:14:00,
2013-05-18 09:19:00,76.1,70.2,30.09,SE,130,4.0,4.0,82,0.00,,,0.02,WeatherCatV1.15B25,2013-05-18 19:19:00,
2013-05-18 09:24:00,76.7,69.7,30.09,SE,130,2.0,2.0,79,0.00,,,0.02,WeatherCatV1.15B25,2013-05-18 19:24:00,
2013-05-18 09:29:00,77.1,70.4,30.09,ENE,57,0.0,3.0,80,0.00,,,0.02,WeatherCatV1.15B25,2013-05-18 19:29:00,
2013-05-18 09:34:00,77.4,70.4,30.09,ENE,76,0.0,3.0,79,0.00,,,0.02,WeatherCatV1.15B25,2013-05-18 19:34:00,
2013-05-18 09:39:00,77.9,70.5,30.09,NNW,346,6.0,6.0,78,0.00,,,0.02,WeatherCatV1.15B25,2013-05-18 19:39:00,
2013-05-18 09:44:00,78.2,70.4,30.09,NNE,20,1.0,3.0,77,0.00,,,0.02,WeatherCatV1.15B25,2013-05-18 19:44:00,
2013-05-18 09:49:00,78.0,69.8,30.09,NE,40,0.0,5.0,76,0.00,,,0.02,WeatherCatV1.15B25,2013-05-18 19:49:00,
2013-05-18 09:54:00,78.2,69.6,30.10,ENE,77,2.0,7.0,75,0.00,,,0.02,WeatherCatV1.15B25,2013-05-18 19:54:00,
2013-05-18 09:59:00,78.4,70.2,30.09,ENE,74,0.0,1.0,76,0.00,,,0.02,WeatherCatV1.15B25,2013-05-18 19:59:00,
2013-05-18 10:04:00,77.8,69.2,30.10,NE,47,4.0,4.0,75,0.00,,,0.02,WeatherCatV1.15B25,2013-05-18 20:04:00,
2013-05-18 10:09:00,77.3,69.9,30.09,ENE,65,1.0,4.0,78,0.00,,,0.02,WeatherCatV1.15B25,2013-05-18 20:09:00,
2013-05-18 10:14:00,76.9,69.5,30.09,ENE,72,1.0,3.0,78,0.00,,,0.02,WeatherCatV1.15B25,2013-05-18 20:14:00,
2013-05-18 10:19:00,76.8,69.4,30.09,ENE,71,1.0,7.0,78,0.00,,,0.02,WeatherCatV1.15B25,2013-05-18 20:19:00,
2013-05-18 10:24:00,76.9,69.9,30.09,ENE,72,0.0,1.0,79,0.00,,,0.02,WeatherCatV1.15B25,2013-05-18 20:24:00,
2013-05-18 10:29:00,77.1,68.9,30.09,NE,56,5.0,8.0,76,0.00,,,0.02,WeatherCatV1.15B25,2013-05-18 20:29:00,
2013-05-18 10:34:00,77.1,68.5,30.09,ENE,70,3.0,6.0,75,0.00,,,0.02,WeatherCatV1.15B25,2013-05-18 20:34:00,
2013-05-18 10:39:00,77.8,69.2,30.09,ENE,61,0.0,8.0,75,0.00,,,0.02,WeatherCatV1.15B25,2013-05-18 20:39:00,
2013-05-18 10:44:00,78.3,70.1,30.09,NNW,338,4.0,6.0,76,0.00,,,0.02,WeatherCatV1.15B25,2013-05-18 20:44:00,
2013-05-18 10:49:00,78.7,70.1,30.09,ENE,57,2.0,10.0,75,0.00,,,0.02,WeatherCatV1.15B25,2013-05-18 20:49:00,
2013-05-18 10:54:00,77.9,69.3,30.09,ENE,66,4.0,8.0,75,0.00,,,0.02,WeatherCatV1.15B25,2013-05-18 20:54:00,
2013-05-18 10:59:00,77.5,70.1,30.09,ENE,63,2.0,3.0,78,0.00,,,0.02,WeatherCatV1.15B25,2013-05-18 20:59:00,
2013-05-18 11:04:00,78.1,70.3,30.09,NE,35,3.0,3.0,77,0.00,,,0.02,WeatherCatV1.15B25,2013-05-18 21:04:00,
2013-05-18 11:09:00,78.0,69.4,30.09,ENE,76,2.0,5.0,75,0.00,,,0.02,WeatherCatV1.15B25,2013-05-18 21:09:00,
2013-05-18 11:14:00,77.5,69.7,30.08,East,86,0.0,6.0,77,0.00,,,0.02,WeatherCatV1.15B25,2013-05-18 21:14:00,
2013-05-18 11:19:00,77.8,69.6,30.08,ENE,75,1.0,6.0,76,0.00,,,0.02,WeatherCatV1.15B25,2013-05-18 21:19:00,
2013-05-18 11:24:00,78.4,70.2,30.08,ENE,61,4.0,5.0,76,0.00,,,0.02,WeatherCatV1.15B25,2013-05-18 21:24:00,
2013-05-18 11:29:00,78.8,70.2,30.08,ENE,64,2.0,10.0,75,0.00,,,0.02,WeatherCatV1.15B25,2013-05-18 21:29:00,
2013-05-18 11:34:00,78.7,69.7,30.08,North,5,0.0,5.0,74,0.00,,,0.02,WeatherCatV1.15B25,2013-05-18 21:34:00,
2013-05-18 11:39:00,78.7,70.1,30.08,North,10,0.0,3.0,75,0.00,,,0.02,WeatherCatV1.15B25,2013-05-18 21:39:00,
2013-05-18 11:44:00,78.4,69.4,30.08,ENE,69,3.0,3.0,74,0.00,,,0.02,WeatherCatV1.15B25,2013-05-18 21:44:00,
2013-05-18 11:49:00,78.9,69.9,30.08,East,82,4.0,7.0,74,0.00,,,0.02,WeatherCatV1.15B25,2013-05-18 21:49:00,
2013-05-18 11:54:00,78.8,69.8,30.08,North,9,3.0,6.0,74,0.00,,,0.02,WeatherCatV1.15B25,2013-05-18 21:54:00,
2013-05-18 11:59:00,78.4,70.2,30.08,ENE,62,2.0,6.0,76,0.00,,,0.02,WeatherCatV1.15B25,2013-05-18 21:59:00,
2013-05-18 12:04:00,77.5,69.7,30.08,NE,40,0.0,4.0,77,0.00,,,0.02,WeatherCatV1.15B25,2013-05-18 22:04:00,
2013-05-18 12:09:00,77.8,70.7,30.07,ENE,70,4.0,7.0,79,0.00,,,0.02,WeatherCatV1.15B25,2013-05-18 22:09:00,
2013-05-18 12:14:00,77.9,70.1,30.07,ENE,75,1.0,8.0,77,0.00,,,0.02,WeatherCatV1.15B25,2013-05-18 22:14:00,
2013-05-18 12:19:00,77.4,70.7,30.07,NNE,22,4.0,9.0,80,0.00,,,0.02,WeatherCatV1.15B25,2013-05-18 22:19:00,
2013-05-18 12:24:00,77.5,70.5,30.07,ENE,71,5.0,10.0,79,0.00,,,0.02,WeatherCatV1.15B25,2013-05-18 22:24:00,
2013-05-18 12:29:00,78.0,70.6,30.06,ENE,74,6.0,7.0,78,0.00,,,0.02,WeatherCatV1.15B25,2013-05-18 22:29:00,
2013-05-18 12:34:00,78.5,71.1,30.06,ENE,74,0.0,4.0,78,0.00,,,0.02,WeatherCatV1.15B25,2013-05-18 22:34:00,
2013-05-18 12:39:00,78.0,70.6,30.06,ENE,76,0.0,6.0,78,0.00,,,0.02,WeatherCatV1.15B25,2013-05-18 22:39:00,
2013-05-18 12:44:00,77.6,69.8,30.05,ENE,75,2.0,10.0,77,0.00,,,0.02,WeatherCatV1.15B25,2013-05-18 22:44:00,
2013-05-18 12:49:00,78.2,71.1,30.06,NE,44,4.0,6.0,79,0.00,,,0.02,WeatherCatV1.15B25,2013-05-18 22:49:00,
2013-05-18 12:54:00,79.0,70.0,30.05,East,86,2.0,5.0,74,0.00,,,0.02,WeatherCatV1.15B25,2013-05-18 22:54:00,
2013-05-18 12:59:00,80.2,71.5,30.05,ENE,67,0.0,5.0,75,0.00,,,0.02,WeatherCatV1.15B25,2013-05-18 22:59:00,
2013-05-18 13:04:00,80.0,71.7,30.05,ENE,66,5.0,5.0,76,0.00,,,0.02,WeatherCatV1.15B25,2013-05-18 23:04:00,
2013-05-18 13:09:00,80.4,71.3,30.05,ENE,78,3.0,7.0,74,0.00,,,0.02,WeatherCatV1.15B25,2013-05-18 23:09:00,
2013-05-18 13:14:00,80.0,70.1,30.05,East,83,3.0,8.0,72,0.00,,,0.02,WeatherCatV1.15B25,2013-05-18 23:14:00,
2013-05-18 13:19:00,80.2,71.1,30.05,East,83,3.0,6.0,74,0.00,,,0.02,WeatherCatV1.15B25,2013-05-18 23:19:00,
2013-05-18 13:24:00,81.0,71.1,30.04,NNE,24,1.0,4.0,72,0.00,,,0.02,WeatherCatV1.15B25,2013-05-18 23:24:00,
2013-05-18 13:29:00,80.9,71.0,30.04,NNE,26,2.0,6.0,72,0.00,,,0.02,WeatherCatV1.15B25,2013-05-18 23:29:00,
2013-05-18 13:34:00,80.7,71.6,30.03,ENE,65,1.0,4.0,74,0.00,,,0.02,WeatherCatV1.15B25,2013-05-18 23:34:00,
2013-05-18 13:39:00,80.9,71.4,30.03,East,94,6.0,7.0,73,0.00,,,0.02,WeatherCatV1.15B25,2013-05-18 23:39:00,
2013-05-18 13:44:00,81.2,71.3,30.03,East,86,0.0,3.0,72,0.00,,,0.02,WeatherCatV1.15B25,2013-05-18 23:44:00,
2013-05-18 13:49:00,81.4,71.5,30.03,East,92,4.0,5.0,72,0.00,,,0.02,WeatherCatV1.15B25,2013-05-18 23:49:00,
2013-05-18 13:54:00,81.2,71.3,30.03,ENE,71,4.0,6.0,72,0.00,,,0.02,WeatherCatV1.15B25,2013-05-18 23:54:00,
2013-05-18 13:59:00,80.4,70.9,30.03,NNE,28,1.0,4.0,73,0.00,,,0.02,WeatherCatV1.15B25,2013-05-18 23:59:00,
2013-05-18 14:04:00,80.7,71.6,30.03,ENE,63,0.0,5.0,74,0.00,,,0.02,WeatherCatV1.15B25,2013-05-19 00:04:00,
2013-05-18 14:09:00,80.9,71.0,30.03,East,81,5.0,13.0,72,0.00,,,0.02,WeatherCatV1.15B25,2013-05-19 00:09:00,
2013-05-18 14:14:00,80.7,71.6,30.02,North,9,1.0,5.0,74,0.00,,,0.02,WeatherCatV1.15B25,2013-05-19 00:14:00,
2013-05-18 14:19:00,80.5,71.4,30.02,ENE,66,2.0,4.0,74,0.00,,,0.02,WeatherCatV1.15B25,2013-05-19 00:19:00,
2013-05-18 14:24:00,80.3,71.2,30.02,ENE,76,0.0,8.0,74,0.00,,,0.02,WeatherCatV1.15B25,2013-05-19 00:24:00,
2013-05-18 14:29:00,80.2,71.1,30.02,East,86,1.0,7.0,74,0.00,,,0.02,WeatherCatV1.15B25,2013-05-19 00:29:00,
2013-05-18 14:34:00,80.1,70.2,30.02,East,82,11.0,11.0,72,0.00,,,0.02,WeatherCatV1.15B25,2013-05-19 00:34:00,
2013-05-18 14:39:00,79.6,69.8,30.02,East,84,6.0,8.0,72,0.00,,,0.02,WeatherCatV1.15B25,2013-05-19 00:39:00,
2013-05-18 14:44:00,79.6,69.3,30.02,NE,52,5.0,8.0,71,0.00,,,0.02,WeatherCatV1.15B25,2013-05-19 00:44:00,
2013-05-18 14:49:00,79.8,68.7,30.02,NE,55,5.0,7.0,69,0.00,,,0.02,WeatherCatV1.15B25,2013-05-19 00:49:00,
2013-05-18 14:54:00,79.3,68.6,30.02,ENE,76,4.0,8.0,70,0.00,,,0.02,WeatherCatV1.15B25,2013-05-19 00:54:00,
2013-05-18 14:59:00,79.9,68.8,30.01,ENE,57,1.0,6.0,69,0.00,,,0.02,WeatherCatV1.15B25,2013-05-19 00:59:00,
2013-05-18 15:04:00,80.0,68.9,30.02,ESE,102,4.0,7.0,69,0.00,,,0.02,WeatherCatV1.15B25,2013-05-19 01:04:00,
2013-05-18 15:09:00,79.9,69.2,30.02,ENE,69,3.0,4.0,70,0.00,,,0.02,WeatherCatV1.15B25,2013-05-19 01:09:00,
2013-05-18 15:14:00,79.0,68.4,30.02,East,79,0.0,5.0,70,0.00,,,0.02,WeatherCatV1.15B25,2013-05-19 01:14:00,
2013-05-18 15:19:00,78.1,67.9,30.02,ENE,70,2.0,8.0,71,0.00,,,0.02,WeatherCatV1.15B25,2013-05-19 01:19:00,
2013-05-18 15:24:00,77.6,68.2,30.01,ENE,74,3.0,7.0,73,0.00,,,0.02,WeatherCatV1.15B25,2013-05-19 01:24:00,
2013-05-18 15:29:00,78.1,68.7,30.01,East,94,0.0,6.0,73,0.00,,,0.02,WeatherCatV1.15B25,2013-05-19 01:29:00,
2013-05-18 15:34:00,78.6,69.2,30.02,East,87,2.0,4.0,73,0.00,,,0.02,WeatherCatV1.15B25,2013-05-19 01:34:00,
2013-05-18 15:39:00,78.7,69.7,30.01,East,80,0.0,1.0,74,0.00,,,0.02,WeatherCatV1.15B25,2013-05-19 01:39:00,
2013-05-18 15:44:00,78.5,69.9,30.01,ESE,102,6.0,8.0,75,0.00,,,0.02,WeatherCatV1.15B25,2013-05-19 01:44:00,
2013-05-18 15:49:00,78.3,70.1,30.01,East,92,0.0,4.0,76,0.00,,,0.02,WeatherCatV1.15B25,2013-05-19 01:49:00,
2013-05-18 15:54:00,78.2,69.2,30.01,East,97,4.0,7.0,74,0.00,,,0.02,WeatherCatV1.15B25,2013-05-19 01:54:00,
2013-05-18 15:59:00,78.4,69.4,30.00,East,97,0.0,6.0,74,0.00,,,0.02,WeatherCatV1.15B25,2013-05-19 01:59:00,
2013-05-18 16:04:00,78.4,69.8,30.01,East,94,0.0,2.0,75,0.00,,,0.02,WeatherCatV1.15B25,2013-05-19 02:04:00,
2013-05-18 16:09:00,78.7,69.7,30.00,East,94,0.0,2.0,74,0.00,,,0.02,WeatherCatV1.15B25,2013-05-19 02:09:00,
2013-05-18 16:14:00,78.9,69.5,30.00,ENE,65,0.0,7.0,73,0.00,,,0.02,WeatherCatV1.15B25,2013-05-19 02:14:00,
2013-05-18 16:19:00,79.0,70.4,30.00,East,92,0.0,1.0,75,0.00,,,0.02,WeatherCatV1.15B25,2013-05-19 02:19:00,
2013-05-18 16:24:00,79.1,70.5,30.00,East,83,1.0,2.0,75,0.00,,,0.02,WeatherCatV1.15B25,2013-05-19 02:24:00,
2013-05-18 16:29:00,78.4,69.0,30.01,ENE,60,4.0,7.0,73,0.00,,,0.02,WeatherCatV1.15B25,2013-05-19 02:29:00,
2013-05-18 16:34:00,77.2,68.6,30.01,East,79,5.0,8.0,75,0.00,,,0.02,WeatherCatV1.15B25,2013-05-19 02:34:00,
2013-05-18 16:39:00,76.7,68.9,30.01,ENE,65,2.0,4.0,77,0.00,,,0.02,WeatherCatV1.15B25,2013-05-19 02:39:00,
2013-05-18 16:40:00,76.7,68.9,30.01,ENE,65,0.0,4.0,77,0.00,,,0.02,WeatherCatV1.15B25,2013-05-19 02:40:00,
2013-05-18 16:45:00,76.6,69.2,30.01,ENE,76,1.0,1.0,78,0.00,,,0.02,WeatherCatV1.15B25,2013-05-19 02:45:00,
2013-05-18 16:50:00,76.3,68.9,30.01,ENE,74,4.0,6.0,78,0.00,,,0.02,WeatherCatV1.15B25,2013-05-19 02:50:00,
2013-05-18 16:55:00,76.3,69.3,30.01,ENE,74,0.0,3.0,79,0.00,,,0.02,WeatherCatV1.15B25,2013-05-19 02:55:00,
2013-05-18 17:00:00,76.5,69.1,30.00,ENE,59,0.0,7.0,78,0.00,,,0.02,WeatherCatV1.15B25,2013-05-19 03:00:00,
2013-05-18 17:05:00,76.5,69.5,30.01,East,91,1.0,8.0,79,0.00,,,0.02,WeatherCatV1.15B25,2013-05-19 03:05:00,
2013-05-18 17:10:00,76.7,69.7,30.01,ENE,70,2.0,4.0,79,0.00,,,0.02,WeatherCatV1.15B25,2013-05-19 03:10:00,
2013-05-18 17:15:00,76.5,69.1,30.01,ENE,69,4.0,7.0,78,0.00,,,0.02,WeatherCatV1.15B25,2013-05-19 03:15:00,
2013-05-18 17:20:00,76.3,69.3,30.01,NE,49,0.0,3.0,79,0.00,,,0.02,WeatherCatV1.15B25,2013-05-19 03:20:00,
2013-05-18 17:25:00,76.2,69.6,30.02,NE,51,1.0,4.0,80,0.00,,,0.02,WeatherCatV1.15B25,2013-05-19 03:25:00,
2013-05-18 17:30:00,76.2,69.2,30.02,ENE,74,0.0,4.0,79,0.00,,,0.02,WeatherCatV1.15B25,2013-05-19 03:30:00,
2013-05-18 17:35:00,76.1,69.5,30.01,NE,40,1.0,1.0,80,0.00,,,0.02,WeatherCatV1.15B25,2013-05-19 03:35:00,
2013-05-18 17:40:00,76.2,69.6,30.01,NE,46,0.0,3.0,80,0.00,,,0.02,WeatherCatV1.15B25,2013-05-19 03:40:00,
2013-05-18 17:45:00,76.4,69.4,30.02,ENE,61,0.0,3.0,79,0.00,,,0.02,WeatherCatV1.15B25,2013-05-19 03:45:00,
2013-05-18 17:50:00,76.4,69.0,30.02,ESE,110,0.0,2.0,78,0.00,,,0.02,WeatherCatV1.15B25,2013-05-19 03:50:00,
2013-05-18 17:55:00,76.2,69.2,30.02,East,81,2.0,4.0,79,0.00,,,0.02,WeatherCatV1.15B25,2013-05-19 03:55:00,
2013-05-18 18:00:00,76.0,69.0,30.02,East,79,0.0,1.0,79,0.00,,,0.02,WeatherCatV1.15B25,2013-05-19 04:00:00,
2013-05-18 18:01:00,76.0,69.0,30.02,East,96,0.0,2.0,79,0.00,,,0.02,WeatherCatV1.15B25,2013-05-19 04:01:00,
2013-05-18 18:06:00,75.8,68.8,30.02,NE,53,0.0,1.0,79,0.00,,,0.02,WeatherCatV1.15B25,2013-05-19 04:06:00,
2013-05-18 18:11:00,75.7,69.1,30.02,ENE,71,5.0,5.0,80,0.00,,,0.02,WeatherCatV1.15B25,2013-05-19 04:11:00,
2013-05-18 18:16:00,75.7,68.7,30.02,East,101,5.0,6.0,79,0.00,,,0.02,WeatherCatV1.15B25,2013-05-19 04:16:00,
2013-05-18 18:21:00,75.5,68.5,30.02,East,96,0.0,2.0,79,0.00,,,0.02,WeatherCatV1.15B25,2013-05-19 04:21:00,
2013-05-18 18:26:00,75.2,68.6,30.02,East,94,0.0,1.0,80,0.00,,,0.02,WeatherCatV1.15B25,2013-05-19 04:26:00,
2013-05-18 18:31:00,75.0,68.4,30.03,East,101,0.0,4.0,80,0.00,,,0.02,WeatherCatV1.15B25,2013-05-19 04:31:00,
2013-05-18 18:36:00,74.8,68.6,30.03,East,101,0.0,4.0,81,0.00,,,0.02,WeatherCatV1.15B25,2013-05-19 04:36:00,
2013-05-18 18:41:00,74.6,68.4,30.03,East,100,0.0,0.0,81,0.00,,,0.02,WeatherCatV1.15B25,2013-05-19 04:41:00,
2013-05-18 18:46:00,74.5,68.6,30.03,East,100,0.0,0.0,82,0.00,,,0.02,WeatherCatV1.15B25,2013-05-19 04:46:00,
2013-05-18 18:51:00,74.4,68.5,30.03,East,100,0.0,1.0,82,0.00,,,0.02,WeatherCatV1.15B25,2013-05-19 04:51:00,
2013-05-18 18:56:00,74.3,68.4,30.04,East,100,0.0,2.0,82,0.00,,,0.02,WeatherCatV1.15B25,2013-05-19 04:56:00,
2013-05-18 19:01:00,74.0,68.1,30.04,East,100,0.0,0.0,82,0.00,,,0.02,WeatherCatV1.15B25,2013-05-19 05:01:00,
2013-05-18 19:06:00,73.8,67.9,30.04,East,100,0.0,0.0,82,0.00,,,0.02,WeatherCatV1.15B25,2013-05-19 05:06:00,
2013-05-18 19:18:00,73.1,67.6,30.04,East,100,0.0,0.0,83,0.00,,,0.02,WeatherCatV1.15B25,2013-05-19 05:18:00,
2013-05-18 19:23:00,72.9,67.8,30.04,East,100,0.0,1.0,84,0.00,,,0.02,WeatherCatV1.15B25,2013-05-19 05:23:00,
2013-05-18 19:27:00,72.6,67.5,30.04,East,100,0.0,0.0,84,0.00,,,0.02,WeatherCatV1.15B25,2013-05-19 05:27:00,
2013-05-18 19:32:00,72.4,67.6,30.05,East,100,0.0,0.0,85,0.00,,,0.02,WeatherCatV1.15B25,2013-05-19 05:32:00,
2013-05-18 19:37:00,72.2,67.4,30.05,East,100,0.0,0.0,85,0.00,,,0.02,WeatherCatV1.15B25,2013-05-19 05:37:00,
2013-05-18 19:42:00,72.1,67.3,30.05,East,100,0.0,0.0,85,0.00,,,0.02,WeatherCatV1.15B25,2013-05-19 05:42:00,
2013-05-18 19:47:00,72.1,67.3,30.05,East,100,0.0,0.0,85,0.00,,,0.02,WeatherCatV1.15B25,2013-05-19 05:47:00,
2013-05-18 19:52:00,72.0,67.2,30.05,East,100,0.0,0.0,85,0.00,,,0.02,WeatherCatV1.15B25,2013-05-19 05:52:00,
2013-05-18 19:57:00,71.9,67.1,30.05,East,100,0.0,0.0,85,0.00,,,0.02,WeatherCatV1.15B25,2013-05-19 05:57:00,
2013-05-18 20:02:00,71.7,66.9,30.05,East,100,0.0,0.0,85,0.00,,,0.02,WeatherCatV1.15B25,2013-05-19 06:02:00,
2013-05-18 20:07:00,71.6,67.2,30.05,East,100,0.0,0.0,86,0.00,,,0.02,WeatherCatV1.15B25,2013-05-19 06:07:00,
2013-05-18 20:12:00,71.5,66.7,30.06,East,100,0.0,0.0,85,0.00,,,0.02,WeatherCatV1.15B25,2013-05-19 06:12:00,
2013-05-18 20:17:00,71.4,67.0,30.06,East,100,0.0,0.0,86,0.00,,,0.02,WeatherCatV1.15B25,2013-05-19 06:17:00,
2013-05-18 20:22:00,71.3,66.9,30.06,East,100,0.0,0.0,86,0.00,,,0.02,WeatherCatV1.15B25,2013-05-19 06:22:00,
2013-05-18 20:27:00,71.2,66.8,30.06,East,100,0.0,0.0,86,0.00,,,0.02,WeatherCatV1.15B25,2013-05-19 06:27:00,
2013-05-18 20:32:00,71.1,67.0,30.06,East,100,0.0,0.0,87,0.00,,,0.02,WeatherCatV1.15B25,2013-05-19 06:32:00,
2013-05-18 20:37:00,71.0,66.9,30.06,East,100,0.0,0.0,87,0.00,,,0.02,WeatherCatV1.15B25,2013-05-19 06:37:00,
2013-05-18 20:42:00,71.0,66.9,30.06,East,100,0.0,0.0,87,0.00,,,0.02,WeatherCatV1.15B25,2013-05-19 06:42:00,
2013-05-18 20:47:00,71.0,66.9,30.07,East,100,0.0,0.0,87,0.00,,,0.02,WeatherCatV1.15B25,2013-05-19 06:47:00,
2013-05-18 20:52:00,71.0,67.3,30.07,East,100,0.0,0.0,88,0.00,,,0.02,WeatherCatV1.15B25,2013-05-19 06:52:00,
2013-05-18 20:57:00,71.0,67.3,30.07,East,100,0.0,0.0,88,0.00,,,0.02,WeatherCatV1.15B25,2013-05-19 06:57:00,
2013-05-18 21:02:00,71.0,67.3,30.07,East,100,0.0,0.0,88,0.00,,,0.02,WeatherCatV1.15B25,2013-05-19 07:02:00,
2013-05-18 21:07:00,71.0,67.3,30.07,East,100,0.0,0.0,88,0.00,,,0.02,WeatherCatV1.15B25,2013-05-19 07:07:00,
2013-05-18 21:12:00,71.0,67.3,30.07,East,100,0.0,0.0,88,0.00,,,0.02,WeatherCatV1.15B25,2013-05-19 07:12:00,
2013-05-18 21:17:00,70.9,67.2,30.07,East,100,0.0,0.0,88,0.00,,,0.02,WeatherCatV1.15B25,2013-05-19 07:17:00,
2013-05-18 21:22:00,70.9,67.2,30.07,East,100,0.0,0.0,88,0.00,,,0.02,WeatherCatV1.15B25,2013-05-19 07:22:00,
2013-05-18 21:27:00,70.9,67.2,30.07,East,100,0.0,0.0,88,0.00,,,0.02,WeatherCatV1.15B25,2013-05-19 07:27:00,
2013-05-18 21:32:00,70.8,67.1,30.07,East,100,0.0,0.0,88,0.00,,,0.02,WeatherCatV1.15B25,2013-05-19 07:32:00,
2013-05-18 21:37:00,70.7,67.0,30.07,East,100,0.0,0.0,88,0.00,,,0.02,WeatherCatV1.15B25,2013-05-19 07:37:00,
2013-05-18 21:42:00,70.7,67.0,30.08,East,100,0.0,0.0,88,0.00,,,0.02,WeatherCatV1.15B25,2013-05-19 07:42:00,
2013-05-18 21:47:00,70.7,67.0,30.08,East,100,0.0,0.0,88,0.00,,,0.02,WeatherCatV1.15B25,2013-05-19 07:47:00,
2013-05-18 21:52:00,70.7,67.0,30.08,East,100,0.0,0.0,88,0.00,,,0.02,WeatherCatV1.15B25,2013-05-19 07:52:00,
2013-05-18 21:57:00,70.6,67.2,30.08,East,100,0.0,0.0,89,0.00,,,0.02,WeatherCatV1.15B25,2013-05-19 07:57:00,
2013-05-18 22:02:00,70.6,67.2,30.08,East,100,0.0,0.0,89,0.00,,,0.02,WeatherCatV1.15B25,2013-05-19 08:02:00,
2013-05-18 22:07:00,70.6,67.2,30.08,East,100,0.0,0.0,89,0.00,,,0.02,WeatherCatV1.15B25,2013-05-19 08:07:00,
2013-05-18 22:12:00,70.6,67.2,30.08,East,100,0.0,0.0,89,0.00,,,0.02,WeatherCatV1.15B25,2013-05-19 08:12:00,
2013-05-18 22:17:00,70.7,67.3,30.08,East,100,0.0,0.0,89,0.00,,,0.02,WeatherCatV1.15B25,2013-05-19 08:17:00,
2013-05-18 22:22:00,70.7,67.3,30.08,East,100,0.0,0.0,89,0.00,,,0.02,WeatherCatV1.15B25,2013-05-19 08:22:00,
2013-05-18 22:27:00,70.6,67.2,30.08,East,100,0.0,0.0,89,0.00,,,0.02,WeatherCatV1.15B25,2013-05-19 08:27:00,
2013-05-18 22:32:00,70.6,67.2,30.08,East,100,0.0,0.0,89,0.00,,,0.02,WeatherCatV1.15B25,2013-05-19 08:32:00,
2013-05-18 22:37:00,70.5,67.1,30.08,East,100,0.0,0.0,89,0.00,,,0.02,WeatherCatV1.15B25,2013-05-19 08:37:00,
2013-05-18 22:42:00,70.4,67.0,30.08,East,100,0.0,0.0,89,0.00,,,0.02,WeatherCatV1.15B25,2013-05-19 08:42:00,
2013-05-18 22:47:00,70.4,67.0,30.08,East,100,0.0,1.0,89,0.00,,,0.02,WeatherCatV1.15B25,2013-05-19 08:47:00,
2013-05-18 22:52:00,70.3,66.9,30.08,East,100,0.0,0.0,89,0.00,,,0.02,WeatherCatV1.15B25,2013-05-19 08:52:00,
2013-05-18 22:57:00,70.3,66.9,30.08,East,100,0.0,0.0,89,0.00,,,0.02,WeatherCatV1.15B25,2013-05-19 08:57:00,
2013-05-18 23:02:00,70.2,66.8,30.08,East,100,0.0,0.0,89,0.00,,,0.02,WeatherCatV1.15B25,2013-05-19 09:02:00,
2013-05-18 23:07:00,70.2,66.8,30.07,East,100,0.0,0.0,89,0.00,,,0.02,WeatherCatV1.15B25,2013-05-19 09:07:00,
2013-05-18 23:12:00,70.2,67.1,30.08,East,100,0.0,0.0,90,0.00,,,0.02,WeatherCatV1.15B25,2013-05-19 09:12:00,
2013-05-18 23:17:00,70.2,67.1,30.07,East,100,0.0,0.0,90,0.00,,,0.02,WeatherCatV1.15B25,2013-05-19 09:17:00,
2013-05-18 23:22:00,70.3,67.2,30.07,East,100,0.0,0.0,90,0.00,,,0.02,WeatherCatV1.15B25,2013-05-19 09:22:00,
2013-05-18 23:27:00,70.3,66.9,30.08,East,100,0.0,0.0,89,0.00,,,0.02,WeatherCatV1.15B25,2013-05-19 09:27:00,
2013-05-18 23:32:00,70.3,66.9,30.07,East,100,0.0,0.0,89,0.00,,,0.02,WeatherCatV1.15B25,2013-05-19 09:32:00,
2013-05-18 23:37:00,70.2,66.8,30.08,East,100,0.0,0.0,89,0.00,,,0.02,WeatherCatV1.15B25,2013-05-19 09:37:00,
2013-05-18 23:42:00,70.1,66.7,30.08,East,100,0.0,0.0,89,0.00,,,0.02,WeatherCatV1.15B25,2013-05-19 09:42:00,
2013-05-18 23:47:00,70.1,66.7,30.08,East,100,0.0,0.0,89,0.00,,,0.02,WeatherCatV1.15B25,2013-05-19 09:47:00,
2013-05-18 23:52:00,70.2,66.8,30.08,East,100,0.0,0.0,89,0.00,,,0.02,WeatherCatV1.15B25,2013-05-19 09:52:00,
2013-05-18 23:57:00,70.2,66.8,30.08,East,100,0.0,1.0,89,0.00,,,0.02,WeatherCatV1.15B25,2013-05-19 09:57:00,